[[{"header":{"parameterUnit":"m.s-1","parameterCategory":1,"la1":30.2991,"la2":30.254,"lo1":-89.0895,"lo2":-89.0444,"dy":0.0017,"dx":0.0017,"nx":28,"ny":28,"refTime":"2025-12-06T09:00:00:Z","depth":0,"parameterNumber":2,"parameterNumberName":"U-component_of_WINDS"},"data":[0,0,0,0,0,0,0,0,0,0,0,0,0,0,0,0,0,0,0,0,0,0,0,0,0,0,0,0,0,0,0,0,0,0,0,0,0,0,0,0,0,0,0,0,0,0,0,0,0,0,0,0,0,0,0,0,0,0,-1.0115,-1.0115,0,-1.0119,-1.0119,-1.0119,-1.0057,-1.0056,-1.0054,-1.0052,-1.0058,-1.006,-1.0062,0,0,0,0,0,0,0,0,0,0,0,0,0,-1.0055,-1.0056,-1.0115,-1.0115,-1.0115,-1.0119,-1.0119,-1.0119,-1.0058,-1.0056,-1.0054,-1.0052,-1.0058,-1.006,-1.0062,0,0,0,0,0,0,0,0,0,0,0,0,0,-1.0072,-1.0057,-1.0115,-1.0085,-1.0082,-1.0119,-1.0119,-1.0119,-1.0058,-1.0056,-1.0053,-1.0051,-1.0057,-1.006,-1.0062,-1.0128,0,0,-1.007,-1.0071,0,0,0,0,0,0,0,0,-1.0071,-1.0075,-1.0089,-1.0087,-1.0084,-1.0085,-1.01,-1.0122,-1.0059,-1.0067,-1.0052,-1.005,-1.0069,-1.0071,-1.0077,-1.0128,-1.0129,-1.007,-1.0072,-1.0073,-1.0074,0,0,0,0,0,0,0,-1.007,-1.0074,-1.0116,-1.0089,-1.0086,-1.0071,-1.0071,-1.0104,-1.0082,-1.0066,-1.0062,-1.0063,-1.0067,-1.0075,-1.0077,-1.0129,-1.007,-1.0072,-1.0074,-1.0075,-1.0235,-1.0237,0,0,0,0,0,0,-1.0073,-1.0073,-1.0116,-1.0116,-1.0071,-1.0074,-1.0074,-1.0087,-1.0082,-1.0079,-1.0065,-1.006,-1.0072,-1.0074,-1.0077,-1.0154,-1.0073,-1.0075,-1.0077,-1.0232,-1.0235,-1.0238,0,0,0,0,0,0,-1.0072,-1.0077,-1.0116,-1.0094,-1.0097,-1.0078,-1.0093,-1.0089,-1.0096,-1.0081,-1.0077,-1.0077,-1.007,-1.0073,-1.0116,-1.0153,-1.0076,-1.0079,-1.0229,-1.0233,-1.0237,-1.0309,0,0,0,0,0,0,-1.007,-1.0077,-1.0102,-1.0095,-1.0099,-1.0155,-1.0096,-1.009,-1.01,-1.0094,-1.009,-1.0088,-1.0068,-1.0112,-1.0118,-1.0156,-1.0081,-1.0225,-1.0231,-1.0235,-1.0304,-1.0315,-1.0325,0,0,0,0,0,-1.0069,-1.0123,-1.0104,-1.0109,-1.0129,-1.0157,-1.016,-1.0135,-1.0103,-1.0128,-1.0119,-1.0088,-1.0148,-1.0117,-1.0123,-1.0162,-1.0223,-1.0229,-1.0235,-1.0299,-1.0313,-1.0325,0,0,0,0,0,0,-1.0136,-1.0121,-1.01,-1.0153,-1.0157,-1.0147,-1.0177,-1.0151,-1.0165,-1.0158,-1.0128,-1.0128,-1.0176,-1.0173,-1.0139,-1.0226,-1.018,-1.0187,-1.0226,-1.024,-1.025,-1.0251,-1.0083,0,0,0,0,0,-1.0157,-1.018,-1.0166,-1.0214,-1.0217,-1.0197,-1.0208,-1.0189,-1.0192,-1.0193,-1.0187,-1.0191,-1.0211,-1.0225,-1.0242,-1.0302,-1.0301,-1.0332,-1.0343,-1.0352,-1.0359,-1.0391,-1.0405,-1.0258,-1.0258,-1.0258,0,0,-1.02,-1.0195,-1.0212,-1.0228,-1.0228,-1.0254,-1.0199,-1.0228,-1.0247,-1.0198,-1.0238,-1.0233,-1.0236,-1.0288,-1.031,-1.0287,-1.0399,-1.036,-1.0367,-1.037,-1.0399,-1.0413,-1.0425,-1.0262,-1.0261,-1.0261,0,0,-1.0293,-1.0291,-1.0331,-1.0333,-1.0334,-1.032,-1.033,-1.0324,-1.0319,-1.0358,-1.0322,-1.0344,-1.0379,-1.0382,-1.0389,-1.0482,-1.0454,-1.0488,-1.0547,-1.0578,-1.059,-1.06,-1.0634,-1.0647,-1.0495,-1.0496,-1.0496,0,-1.0348,-1.0384,-1.0356,-1.0387,-1.0396,-1.0351,-1.0392,-1.0395,-1.0403,-1.041,-1.0383,-1.0426,-1.0424,-1.0476,-1.0499,-1.0505,-1.0516,-1.0489,-1.059,-1.06,-1.0609,-1.0642,-1.0654,-1.05,-1.0499,-1.0499,-1.0499,0,-1.0451,-1.0477,-1.0509,-1.0517,-1.0529,-1.0565,-1.0542,-1.0558,-1.0537,-1.0526,-1.0567,-1.0564,-1.058,-1.0591,-1.0571,-1.064,-1.0626,-1.0595,-1.0549,-1.0628,-1.0658,-1.067,-1.0506,-1.0504,-1.0503,-1.0502,0,0,-1.0588,-1.0579,-1.0591,-1.0594,-1.0592,-1.0612,-1.0646,-1.0661,-1.0675,-1.0681,-1.071,-1.0739,-1.0711,-1.0718,-1.0699,-1.0726,-1.0801,-1.0692,-1.0692,-1.0714,-1.0878,-1.0902,-1.0917,-1.0782,-1.0784,-1.0786,-1.0878,0,-1.0679,-1.0737,-1.0712,-1.0772,-1.0796,-1.0754,-1.0784,-1.0786,-1.0777,-1.0796,-1.0785,-1.0807,-1.0767,-1.0771,-1.0797,-1.0787,-1.0834,-1.078,-1.0809,-1.0811,-1.0812,-1.0933,-1.0958,-1.1046,-1.089,-1.0892,-1.0893,0,-1.0794,-1.0804,-1.0867,-1.086,-1.0869,-1.0897,-1.0908,-1.0927,-1.0928,-1.0919,-1.0927,-1.0901,-1.0935,-1.0887,-1.0933,-1.0897,-1.0907,-1.0904,-1.0907,-1.091,-1.0858,-1.094,-1.1073,-1.1086,-1.0911,-1.091,-1.0908,0,-1.0889,-1.0918,-1.096,-1.0963,-1.0956,-1.0977,-1.0975,-1.0974,-1.0984,-1.0995,-1.1001,-1.1016,-1.1024,-1.1036,-1.1014,-1.0982,-1.1064,-1.1014,-1.1058,-1.1059,-1.1079,-1.1078,-1.1216,-1.1083,-1.1083,-1.1083,-1.1082,0,-1.0994,-1.1035,-1.1002,-1.1028,-1.1072,-1.1043,-1.1087,-1.1081,-1.108,-1.1104,-1.1068,-1.1091,-1.1061,-1.1082,-1.1065,-1.1106,-1.111,-1.1104,-1.1099,-1.1108,-1.1109,-1.1116,-1.111,-1.1086,-1.1085,-1.1085,-1.1084,0,-1.1109,-1.1088,-1.1131,-1.112,-1.1119,-1.1152,-1.1143,-1.1167,-1.1154,-1.1185,-1.119,-1.1171,-1.1193,-1.1172,-1.1194,-1.1182,-1.1238,-1.1224,-1.1237,-1.1234,-1.1279,-1.1276,-1.1428,-1.1446,-1.13,-1.1302,-1.1303,0,-1.1178,-1.1208,-1.12,-1.1214,-1.1214,-1.1236,-1.1246,-1.1218,-1.1231,-1.1234,-1.1258,-1.1276,-1.129,-1.1328,-1.1316,-1.1332,-1.1319,-1.1371,-1.1321,-1.1329,-1.1321,-1.132,-1.1324,-1.1382,-1.1383,-1.1385,-1.1386,0,-1.1303,-1.1292,-1.1308,-1.1321,-1.1335,-1.1344,-1.135,-1.1363,-1.1334,-1.135,-1.1372,-1.1383,-1.1404,-1.1424,-1.1436,-1.1434,-1.1406,-1.1401,-1.1413,-1.1423,-1.143,-1.1428,-1.1266,-1.1399,-1.1397,-1.1396,-1.1396,-1.1395,-1.1398,-1.1423,-1.1422,-1.1441,-1.1443,-1.1449,-1.1471,-1.146,-1.1478,-1.1493,-1.1475,-1.1503,-1.1503,-1.1516,-1.1518,-1.1539,-1.1517,-1.1533,-1.1538,-1.1542,-1.155,-1.1425,-1.1541,-1.1541,-1.154,-1.154,-1.154,0,-1.1523,-1.152,-1.1538,-1.1547,-1.1563,-1.1533,-1.1539,-1.1554,-1.1578,-1.158,-1.1594,-1.162,-1.1639,-1.1628,-1.1644,-1.1663,-1.165,-1.1668,-1.1667,-1.1668,-1.1567,-1.1557,-1.1678,-1.1678,-1.1678,-1.1678,-1.1678,-1.1678,-1.159,-1.1631,-1.1619,-1.166,-1.1656,-1.1682,-1.1688,-1.1694,-1.1696,-1.1725,-1.1741,-1.1733,-1.173,-1.1746,-1.1762,-1.1758,-1.1766,-1.1789,-1.1781,-1.1688,-1.1675,-1.1662,-1.1651,-1.1791,-1.1791,-1.1879,-1.188,-1.1881]},{"header":{"parameterUnit":"m.s-1","parameterCategory":1,"la1":30.2991,"la2":30.254,"lo1":-89.0895,"lo2":-89.0444,"dy":0.0017,"dx":0.0017,"nx":28,"ny":28,"refTime":"2025-12-06T09:00:00:Z","depth":0,"parameterNumber":3,"parameterNumberName":"V-component_of_WINDS"},"data":[0,0,0,0,0,0,0,0,0,0,0,0,0,0,0,0,0,0,0,0,0,0,0,0,0,0,0,0,0,0,0,0,0,0,0,0,0,0,0,0,0,0,0,0,0,0,0,0,0,0,0,0,0,0,0,0,0,0,-2.0426,-2.0426,0,-2.0415,-2.0415,-2.0415,-2.0387,-2.0387,-2.0386,-2.0386,-2.0374,-2.0375,-2.0375,0,0,0,0,0,0,0,0,0,0,0,0,0,-2.0425,-2.0425,-2.0426,-2.0426,-2.0426,-2.0415,-2.0415,-2.0415,-2.0388,-2.0387,-2.0386,-2.0386,-2.0374,-2.0375,-2.0375,0,0,0,0,0,0,0,0,0,0,0,0,0,-2.0421,-2.0425,-2.0426,-2.0411,-2.041,-2.0415,-2.0415,-2.0415,-2.0388,-2.0387,-2.0386,-2.0385,-2.0374,-2.0375,-2.0375,-2.0394,0,0,-2.0376,-2.0376,0,0,0,0,0,0,0,0,-2.0421,-2.0421,-2.0414,-2.0412,-2.0411,-2.0402,-2.041,-2.0408,-2.0388,-2.0396,-2.0386,-2.0385,-2.0384,-2.0384,-2.0384,-2.0394,-2.0393,-2.0376,-2.0376,-2.0376,-2.0377,0,0,0,0,0,0,0,-2.0421,-2.0421,-2.0422,-2.0413,-2.0412,-2.0405,-2.0403,-2.041,-2.0395,-2.0395,-2.0393,-2.0392,-2.0383,-2.0383,-2.0383,-2.0393,-2.0376,-2.0376,-2.0377,-2.0377,-2.0418,-2.0419,0,0,0,0,0,0,-2.0424,-2.0421,-2.0422,-2.0422,-2.0414,-2.0406,-2.0404,-2.0405,-2.0395,-2.0393,-2.0393,-2.0391,-2.0383,-2.0383,-2.0383,-2.0404,-2.0376,-2.0377,-2.0377,-2.0417,-2.0418,-2.0419,0,0,0,0,0,0,-2.0424,-2.0424,-2.0423,-2.0421,-2.042,-2.0407,-2.0409,-2.0406,-2.0406,-2.0393,-2.0391,-2.0396,-2.0382,-2.0382,-2.0391,-2.0403,-2.0377,-2.0377,-2.0416,-2.0417,-2.0419,-2.0446,0,0,0,0,0,0,-2.0424,-2.0424,-2.0431,-2.0421,-2.042,-2.0432,-2.0409,-2.0406,-2.0406,-2.0404,-2.0395,-2.0393,-2.0382,-2.0391,-2.0392,-2.0403,-2.0378,-2.0415,-2.0417,-2.0418,-2.0444,-2.0449,-2.0452,0,0,0,0,0,-2.0424,-2.044,-2.0432,-2.0432,-2.0429,-2.0432,-2.0432,-2.0419,-2.0407,-2.0414,-2.0406,-2.0393,-2.0402,-2.0392,-2.0393,-2.0404,-2.0414,-2.0416,-2.0418,-2.0443,-2.0448,-2.0452,0,0,0,0,0,0,-2.0452,-2.0438,-2.0429,-2.0442,-2.0439,-2.0428,-2.0436,-2.0425,-2.0424,-2.0422,-2.0406,-2.0404,-2.0415,-2.0411,-2.04,-2.0422,-2.0406,-2.0408,-2.0424,-2.0429,-2.0433,-2.0433,-2.0378,0,0,0,0,0,-2.0459,-2.0463,-2.0451,-2.0464,-2.0463,-2.045,-2.0451,-2.0441,-2.0437,-2.0435,-2.0428,-2.0424,-2.0426,-2.0427,-2.0428,-2.0444,-2.0441,-2.0452,-2.0456,-2.0459,-2.0461,-2.0468,-2.0473,-2.0426,-2.0426,-2.0425,0,0,-2.0475,-2.0468,-2.0472,-2.0469,-2.0465,-2.047,-2.0449,-2.0454,-2.0457,-2.0436,-2.0444,-2.0439,-2.0433,-2.0446,-2.0451,-2.0442,-2.0474,-2.0462,-2.0464,-2.0464,-2.0471,-2.0475,-2.0479,-2.0427,-2.0427,-2.0426,0,0,-2.0506,-2.0501,-2.0511,-2.0508,-2.0502,-2.0493,-2.0496,-2.0486,-2.0482,-2.049,-2.0474,-2.0477,-2.0481,-2.0478,-2.0476,-2.0506,-2.0493,-2.0507,-2.0527,-2.0534,-2.0538,-2.0541,-2.055,-2.0554,-2.0509,-2.0509,-2.0509,0,-2.0526,-2.0532,-2.0518,-2.0524,-2.0523,-2.0504,-2.0514,-2.0511,-2.0506,-2.0506,-2.0497,-2.0501,-2.0496,-2.0507,-2.0514,-2.0514,-2.0516,-2.0507,-2.0538,-2.0541,-2.0544,-2.0553,-2.0557,-2.0511,-2.0511,-2.051,-2.051,0,-2.0556,-2.0561,-2.0569,-2.0564,-2.0565,-2.0573,-2.056,-2.0562,-2.0553,-2.0545,-2.0553,-2.0547,-2.0546,-2.0548,-2.0539,-2.0558,-2.0552,-2.0541,-2.0524,-2.055,-2.0558,-2.0562,-2.0513,-2.0512,-2.0512,-2.0512,0,0,-2.0603,-2.0591,-2.0594,-2.0592,-2.0584,-2.0587,-2.0594,-2.0593,-2.0595,-2.0592,-2.0597,-2.0601,-2.059,-2.0589,-2.0579,-2.0586,-2.0609,-2.0573,-2.0573,-2.0579,-2.0628,-2.0636,-2.064,-2.0601,-2.0601,-2.0602,-2.0628,0,-2.0631,-2.0642,-2.063,-2.0644,-2.0647,-2.0629,-2.0636,-2.0632,-2.0625,-2.0627,-2.0619,-2.0622,-2.0608,-2.0607,-2.0612,-2.0605,-2.0618,-2.0603,-2.0605,-2.0605,-2.0605,-2.0644,-2.0653,-2.0678,-2.0631,-2.0632,-2.0632,0,-2.0665,-2.0664,-2.0678,-2.0669,-2.067,-2.0675,-2.0673,-2.0675,-2.067,-2.0665,-2.0664,-2.0652,-2.0658,-2.0643,-2.0651,-2.0641,-2.0641,-2.0637,-2.0638,-2.0637,-2.0619,-2.0643,-2.0685,-2.0689,-2.0637,-2.0637,-2.0636,0,-2.0697,-2.0698,-2.0707,-2.0705,-2.0695,-2.07,-2.0696,-2.069,-2.069,-2.0688,-2.0688,-2.0688,-2.0687,-2.0687,-2.0675,-2.0665,-2.0684,-2.0668,-2.068,-2.068,-2.0683,-2.0683,-2.0725,-2.0686,-2.0686,-2.0686,-2.0686,0,-2.0728,-2.0737,-2.0721,-2.0726,-2.0735,-2.0721,-2.0731,-2.0725,-2.072,-2.0724,-2.0709,-2.0713,-2.0698,-2.07,-2.0691,-2.0699,-2.0699,-2.0694,-2.0691,-2.0695,-2.0695,-2.0694,-2.0691,-2.0687,-2.0686,-2.0686,-2.0686,0,-2.0765,-2.0754,-2.0762,-2.0752,-2.0749,-2.0757,-2.0748,-2.0752,-2.0745,-2.0749,-2.075,-2.0738,-2.0739,-2.0728,-2.0728,-2.0722,-2.0733,-2.0728,-2.0735,-2.0733,-2.0745,-2.0743,-2.0786,-2.0791,-2.075,-2.075,-2.075,0,-2.0785,-2.0791,-2.0782,-2.0783,-2.078,-2.0782,-2.0782,-2.0769,-2.077,-2.0764,-2.0769,-2.077,-2.0769,-2.0772,-2.0764,-2.0763,-2.0757,-2.0773,-2.0757,-2.076,-2.0756,-2.0756,-2.0756,-2.0775,-2.0776,-2.0776,-2.0777,0,-2.0822,-2.0816,-2.0816,-2.0815,-2.0815,-2.0814,-2.0811,-2.0813,-2.0799,-2.08,-2.0801,-2.0801,-2.0801,-2.0801,-2.0799,-2.0795,-2.0783,-2.0782,-2.0784,-2.0787,-2.079,-2.0788,-2.0742,-2.0781,-2.078,-2.078,-2.078,-2.078,-2.085,-2.0854,-2.0848,-2.0849,-2.0846,-2.0844,-2.0847,-2.084,-2.0841,-2.0839,-2.0832,-2.0834,-2.0829,-2.0825,-2.0822,-2.0824,-2.0816,-2.082,-2.0821,-2.0822,-2.0824,-2.0791,-2.0824,-2.0823,-2.0823,-2.0823,-2.0823,0,-2.0885,-2.088,-2.0881,-2.0878,-2.0878,-2.0868,-2.0864,-2.0866,-2.0868,-2.0864,-2.0864,-2.0865,-2.0866,-2.0857,-2.0857,-2.086,-2.0854,-2.086,-2.0859,-2.0858,-2.0831,-2.0828,-2.0864,-2.0864,-2.0864,-2.0864,-2.0864,-2.0864,-2.0903,-2.091,-2.0903,-2.0909,-2.0904,-2.0906,-2.0905,-2.0903,-2.09,-2.0902,-2.0902,-2.0897,-2.0891,-2.089,-2.0889,-2.0887,-2.0887,-2.0894,-2.089,-2.0864,-2.086,-2.0856,-2.0854,-2.0894,-2.0894,-2.0917,-2.0917,-2.0917]}]]